GW6055 Weather Reports


Display with metric or nautical units.
time (UTC)temp
F
wind
direction
speed
MPH
gust
MPH
rain 1hr
in
rain 24hr
in
rain mn
in
humidity
%
barometer
mb
20260906103143 71 141 0.0 0.0 0.00 0.00 0.00 99 1014.0
20260906102643 70 138 0.0 0.0 0.00 0.00 0.00 99 1014.0
20260906102142 71 149 0.0 0.0 0.00 0.00 0.00 99 1014.1
20260906101642 71 148 0.0 0.0 0.00 0.00 0.00 99 1014.0
20260906101137 71 141 0.0 0.0 0.00 0.00 0.00 99 1013.9
20260906100633 71 122 0.0 1.0 0.00 0.00 0.00 99 1013.9
20260906100128 71 132 0.0 1.0 0.00 0.00 0.00 99 1013.9
20260906095627 71 149 0.0 0.0 0.00 0.00 0.00 99 1014.1
20260906095123 71 149 0.0 0.0 0.00 0.00 0.00 99 1014.0
20260906094622 71 160 0.0 1.0 0.00 0.00 0.00 99 1014.1
20260906094118 71 142 0.0 0.0 0.00 0.00 0.00 99 1013.7
20260906093614 72 137 0.0 1.0 0.00 0.00 0.00 99 1013.7
20260906093108 72 141 0.0 0.0 0.00 0.00 0.00 99 1013.4
20260906092603 72 139 0.0 0.0 0.00 0.00 0.00 99 1013.4
20260906092058 72 147 0.0 0.0 0.00 0.00 0.00 99 1013.4
20260906091554 72 147 0.0 0.0 0.00 0.00 0.00 99 1013.6
20260906091051 72 147 0.0 0.0 0.00 0.00 0.00 99 1013.8
20260906090550 72 142 0.0 0.0 0.00 0.00 0.00 99 1013.6
20260906090046 72 142 0.0 0.0 0.00 0.00 0.00 99 1013.6
20260906085544 72 147 0.0 0.0 0.00 0.00 0.00 99 1013.8
20260906085044 73 147 0.0 0.0 0.00 0.00 0.00 99 1014.0
20260906084539 73 148 0.0 0.0 0.00 0.00 0.00 99 1014.0
20260906084037 73 155 0.0 0.0 0.00 0.00 0.00 99 1014.0
20260906083533 73 164 0.0 1.0 0.00 0.00 0.00 99 1014.0
20260906083033 73 148 0.0 0.0 0.00 0.00 0.00 99 1013.8
20260906082528 73 158 1.0 2.0 0.00 0.00 0.00 99 1014.1
20260906082024 73 163 0.0 0.0 0.00 0.00 0.00 99 1014.2
20260906081520 73 156 0.0 0.0 0.00 0.00 0.00 99 1014.1
20260906081015 73 158 0.0 0.0 0.00 0.00 0.00 99 1014.2
20260906080512 73 138 0.0 0.0 0.00 0.00 0.00 99 1014.2
20260906080008 73 157 0.0 1.0 0.00 0.00 0.00 99 1014.3
20260906075501 73 168 1.0 1.0 0.00 0.00 0.00 99 1014.1
20260906074956 73 181 0.0 2.0 0.00 0.00 0.00 99 1014.3
20260906074457 73 198 1.0 1.0 0.00 0.00 0.00 99 1014.2
20260906073955 73 185 1.0 2.0 0.00 0.00 0.00 99 1014.5
20260906073450 73 250 3.0 4.0 0.00 0.00 0.00 99 1014.6
20260906072946 73 168 2.0 3.0 0.00 0.00 0.00 99 1014.8
20260906072441 73 206 1.0 3.0 0.00 0.00 0.00 99 1014.9
20260906071937 72 154 0.0 4.0 0.00 0.00 0.00 99 1014.8
20260906071433 73 256 4.0 7.0 0.00 0.00 0.00 99 1014.7
20260906070929 73 236 1.0 2.0 0.00 0.00 0.00 99 1014.4
20260906070425 72 143 0.0 0.0 0.00 0.00 0.00 99 1013.9
20260906065920 72 145 0.0 0.0 0.00 0.00 0.00 99 1013.3
20260906065414 72 145 0.0 0.0 0.00 0.00 0.00 99 1013.4
20260906064910 72 158 0.0 0.0 0.00 0.00 0.00 99 1013.3
20260906064407 72 145 0.0 0.0 0.00 0.00 0.00 99 1013.6
20260906063906 72 145 0.0 0.0 0.00 0.00 0.00 99 1013.6
20260906063401 72 154 0.0 0.0 0.00 0.00 0.00 99 1013.7
20260906062856 72 155 0.0 0.0 0.00 0.00 0.00 99 1013.9
20260906062355 72 143 0.0 0.0 0.00 0.00 0.00 99 1013.9
20260906061851 72 158 0.0 0.0 0.00 0.00 0.00 99 1014.0
20260906061348 72 158 0.0 0.0 0.00 0.00 0.00 99 1013.8
20260906060842 73 158 0.0 0.0 0.00 0.00 0.00 99 1013.9
20260906060340 73 161 0.0 0.0 0.00 0.00 0.00 99 1013.7
20260906055835 73 162 0.0 0.0 0.00 0.00 0.00 99 1013.7
20260906055331 73 146 0.0 0.0 0.00 0.00 0.00 99 1013.9
20260906054826 73 155 0.0 0.0 0.00 0.00 0.00 99 1013.9
20260906054321 73 158 0.0 0.0 0.00 0.00 0.00 99 1014.0
20260906053818 72 162 0.0 0.0 0.00 0.00 0.00 99 1014.2
20260906053313 72 153 0.0 0.0 0.00 0.00 0.00 99 1014.3
20260906052808 72 151 0.0 0.0 0.00 0.00 0.00 99 1014.3
20260906052306 72 151 0.0 0.0 0.00 0.00 0.00 99 1014.5
20260906051801 72 160 0.0 0.0 0.00 0.00 0.00 99 1014.6
20260906051300 73 155 0.0 0.0 0.00 0.00 0.00 99 1014.6
20260906050756 72 139 0.0 0.0 0.00 0.00 0.00 99 1014.6
20260906050251 72 138 0.0 1.0 0.00 0.00 0.00 99 1014.5
20260906045749 72 154 0.0 0.0 0.00 0.00 0.00 99 1014.4
20260906045244 72 153 0.0 0.0 0.00 0.00 0.00 99 1014.6
20260906044741 73 143 0.0 0.0 0.00 0.00 0.00 99 1014.7
20260906044235 72 145 0.0 0.0 0.00 0.00 0.00 99 1014.7
20260906043732 72 151 0.0 0.0 0.00 0.00 0.00 99 1014.9
20260906043227 72 143 0.0 0.0 0.00 0.00 0.00 99 1014.7
20260906042727 72 143 0.0 0.0 0.00 0.00 0.00 99 1014.8
20260906042226 72 143 0.0 0.0 0.00 0.00 0.00 99 1014.8
20260906041721 73 136 0.0 0.0 0.00 0.00 0.00 99 1014.8
20260906041217 73 132 0.0 1.0 0.00 0.00 0.00 99 1014.8
20260906040712 72 148 0.0 0.0 0.00 0.00 0.00 99 1014.7
20260906040208 72 156 0.0 0.0 0.00 0.00 0.00 99 1014.7
20260906035703 73 150 0.0 0.0 0.00 0.23 0.23 99 1014.8
20260906035159 73 130 0.0 0.0 0.00 0.23 0.23 99 1014.9
20260906034653 73 124 0.0 0.0 0.00 0.23 0.23 99 1014.8
20260906034148 73 131 0.0 1.0 0.00 0.23 0.23 99 1014.7
20260906033644 73 158 0.0 0.0 0.00 0.23 0.23 99 1014.9
20260906033143 73 158 0.0 0.0 0.00 0.23 0.23 99 1014.6
20260906032640 73 158 0.0 0.0 0.00 0.23 0.23 99 1014.7
20260906032140 73 159 0.0 0.0 0.00 0.23 0.23 99 1015.0
20260906031635 73 175 0.0 1.0 0.00 0.23 0.23 99 1014.9
20260906031131 73 154 0.0 0.0 0.00 0.23 0.23 99 1014.8
20260906030630 73 157 0.0 0.0 0.00 0.23 0.23 99 1014.7
20260906030125 73 160 0.0 0.0 0.00 0.23 0.23 99 1014.7
20260906025624 73 160 0.0 0.0 0.00 0.23 0.23 99 1014.6
20260906025124 73 161 0.0 0.0 0.00 0.23 0.23 99 1014.5
20260906024618 73 161 0.0 1.0 0.00 0.23 0.23 99 1014.5
20260906024113 73 151 0.0 0.0 0.00 0.23 0.23 99 1014.4
20260906023609 73 151 0.0 0.0 0.00 0.23 0.23 99 1014.2
20260906023103 74 151 0.0 0.0 0.00 0.23 0.23 99 1014.2
20260906022558 74 148 0.0 0.0 0.00 0.23 0.23 99 1014.1
20260906022054 74 142 0.0 0.0 0.00 0.23 0.23 99 1014.1
20260906021549 74 141 0.0 0.0 0.00 0.23 0.23 99 1014.1
20260906021048 74 141 0.0 1.0 0.00 0.23 0.23 99 1014.2
20260906020542 74 147 0.0 0.0 0.00 0.23 0.23 98 1014.1
20260906020042 74 147 0.0 0.0 0.00 0.23 0.23 98 1014.0
20260906015541 74 145 0.0 0.0 0.00 0.23 0.23 98 1013.9
20260906015035 74 151 0.0 0.0 0.00 0.23 0.23 98 1013.8
20260906014530 75 147 0.0 0.0 0.00 0.23 0.23 98 1013.9
20260906014026 74 133 0.0 1.0 0.00 0.23 0.23 98 1014.0
20260906013521 75 147 0.0 1.0 0.00 0.23 0.23 98 1013.9
20260906013017 74 146 1.0 1.0 0.00 0.23 0.23 98 1013.6
20260906012512 74 159 0.0 0.0 0.00 0.23 0.23 98 1013.7
20260906012011 74 145 0.0 0.0 0.00 0.23 0.23 98 1013.4
20260906011508 75 145 0.0 0.0 0.00 0.23 0.23 98 1013.6
20260906011008 75 145 0.0 0.0 0.00 0.23 0.23 98 1013.7
20260906010503 75 158 0.0 0.0 0.00 0.23 0.23 97 1013.7
20260906005959 75 158 0.0 0.0 0.00 0.23 0.23 97 1013.8
20260906005458 75 158 0.0 0.0 0.00 0.23 0.23 97 1013.8
20260906004957 75 158 0.0 0.0 0.00 0.23 0.23 96 1013.7
20260906004457 75 158 0.0 0.0 0.00 0.23 0.23 96 1013.8
20260906003952 75 158 0.0 0.0 0.00 0.23 0.23 96 1013.8
20260906003447 76 158 0.0 0.0 0.00 0.23 0.23 95 1013.7
20260906002942 76 159 0.0 0.0 0.00 0.23 0.23 95 1013.9
20260906002442 76 137 0.0 0.0 0.00 0.23 0.23 95 1014.0
20260906001937 77 147 0.0 0.0 0.00 0.23 0.23 94 1013.9
20260906001433 77 152 0.0 0.0 0.00 0.23 0.23 93 1013.8
20260906000928 78 152 0.0 0.0 0.00 0.23 0.23 92 1013.9
20260906000425 78 152 0.0 0.0 0.00 0.23 0.23 91 1014.0
20260905235919 78 158 0.0 0.0 0.00 0.23 0.23 91 1014.0
20260905235418 78 159 0.0 0.0 0.00 0.23 0.23 90 1014.0
20260905234913 78 156 0.0 1.0 0.00 0.23 0.23 91 1014.0
20260905234408 81 158 0.0 0.0 0.00 0.23 0.23 89 1013.8
20260905233903 81 158 0.0 0.0 0.00 0.23 0.23 86 1013.8
20260905233358 83 158 0.0 0.0 0.00 0.23 0.23 84 1013.7
20260905232857 85 158 0.0 0.0 0.00 0.23 0.23 81 1013.4
20260905232354 85 161 0.0 0.0 0.00 0.23 0.23 79 1013.7
20260905231849 85 162 0.0 0.0 0.00 0.23 0.23 78 1013.2
20260905231349 84 153 0.0 0.0 0.00 0.23 0.23 80 1013.4
20260905230847 84 140 0.0 0.0 0.00 0.23 0.23 77 1013.2
20260905230344 85 147 0.0 1.0 0.00 0.23 0.23 78 1013.2
20260905225843 88 135 1.0 1.0 0.00 0.23 0.23 73 1013.3
20260905225338 88 159 0.0 0.0 0.00 0.23 0.23 72 1013.6
20260905224833 88 165 0.0 1.0 0.00 0.23 0.23 78 1013.4
20260905224329 86 165 0.0 0.0 0.00 0.23 0.23 77 1013.7
20260905223824 87 153 0.0 0.0 0.00 0.23 0.23 74 1014.0
20260905223322 84 151 0.0 0.0 0.00 0.23 0.23 81 1013.7
20260905222816 85 145 0.0 1.0 0.00 0.23 0.23 79 1013.8
20260905222315 86 148 0.0 0.0 0.00 0.23 0.23 78 1013.8
20260905221811 84 175 0.0 1.0 0.00 0.23 0.23 78 1013.7
20260905221308 84 138 0.0 1.0 0.00 0.23 0.23 77 1013.7
20260905220803 85 174 0.0 1.0 0.00 0.23 0.23 78 1013.9
20260905220259 85 178 0.0 1.0 0.00 0.23 0.23 78 1013.9
20260905215758 84 166 0.0 0.0 0.00 0.23 0.23 77 1013.9
20260905215254 82 185 0.0 1.0 0.00 0.23 0.23 81 1013.9
20260905214750 80 155 0.0 0.0 0.00 0.23 0.23 84 1014.0
20260905214246 78 153 0.0 0.0 0.00 0.23 0.23 91 1014.1
20260905213741 78 126 0.0 0.0 0.00 0.23 0.23 91 1014.0
20260905213237 77 154 0.0 0.0 0.00 0.23 0.23 93 1014.2
20260905212732 77 156 0.0 0.0 0.00 0.23 0.23 92 1014.2
20260905212231 76 141 0.0 1.0 0.00 0.23 0.23 90 1014.2
20260905211730 76 153 0.0 0.0 0.00 0.23 0.23 89 1014.2
20260905211226 76 148 0.0 0.0 0.00 0.23 0.23 90 1014.5
20260905210723 76 146 0.0 1.0 0.00 0.23 0.23 92 1014.3
20260905210222 76 157 0.0 0.0 0.00 0.23 0.23 94 1014.2
20260905205721 76 174 0.0 2.0 0.00 0.23 0.23 94 1014.2
20260905205216 76 168 0.0 1.0 0.00 0.23 0.23 93 1014.3
20260905204716 76 158 0.0 0.0 0.00 0.23 0.23 94 1014.2
20260905204211 77 191 0.0 1.0 0.00 0.23 0.23 95 1014.5
20260905203706 77 160 0.0 0.0 0.00 0.23 0.23 93 1014.5
20260905203201 77 161 0.0 1.0 0.00 0.23 0.23 91 1014.7
20260905202656 78 164 0.0 0.0 0.00 0.23 0.23 93 1014.6
20260905202151 78 174 1.0 2.0 0.00 0.23 0.23 93 1015.2
20260905201647 79 171 0.0 1.0 0.00 0.23 0.23 94 1015.1
20260905201147 79 147 0.0 0.0 0.00 0.23 0.23 93 1015.1
20260905200642 79 147 0.0 0.0 0.00 0.23 0.23 92 1014.9
20260905200137 79 145 0.0 0.0 0.00 0.23 0.23 92 1015.3
20260905195636 80 157 0.0 0.0 0.00 0.23 0.23 91 1015.0
20260905195131 80 152 0.0 0.0 0.00 0.23 0.23 89 1014.9
20260905194626 80 148 0.0 0.0 0.00 0.23 0.23 89 1014.9
20260905194125 79 138 2.0 2.0 0.00 0.23 0.23 89 1015.0
20260905193620 78 128 2.0 2.0 0.00 0.23 0.23 89 1015.1
20260905193115 78 140 0.0 2.0 0.00 0.23 0.23 87 1015.1
20260905192611 78 138 0.0 1.0 0.00 0.23 0.23 90 1015.2
20260905192107 77 358 2.0 2.0 0.00 0.23 0.23 94 1015.1
20260905191606 77 318 1.0 2.0 0.00 0.23 0.23 94 1014.8
20260905191105 78 148 0.0 0.0 0.00 0.23 0.23 92 1014.8
20260905190603 78 122 1.0 2.0 0.54 0.23 0.23 89 1015.4
20260905185601 83 159 0.0 3.0 0.54 0.10 0.10 81 1016.4
20260905185056 84 26 2.0 4.0 0.14 0.02 0.02 77 1015.5
20260905184550 87 117 0.0 3.0 0.07 0.01 0.01 74 1015.5
20260905184049 89 130 1.0 2.0 0.00 0.00 0.00 68 1015.4
20260905183549 90 347 1.0 2.0 0.00 0.00 0.00 66 1015.2
20260905183040 90 193 1.0 2.0 0.00 0.00 0.00 67 1015.0
20260905182538 91 148 1.0 2.0 0.00 0.00 0.00 63 1015.0
20260905182033 92 164 0.0 0.0 0.00 0.00 0.00 66 1014.8
20260905181528 93 151 1.0 1.0 0.00 0.00 0.00 59 1014.9
20260905181027 93 122 1.0 2.0 0.00 0.00 0.00 58 1015.0
20260905180521 93 156 1.0 4.0 0.00 0.00 0.00 62 1015.1
20260905180017 94 1 1.0 2.0 0.00 0.00 0.00 57 1014.9
20260905175516 95 166 0.0 1.0 0.00 0.00 0.00 58 1014.8
20260905175012 95 164 0.0 1.0 0.00 0.00 0.00 55 1014.9
20260905174507 96 271 2.0 3.0 0.00 0.00 0.00 57 1015.0
20260905174003 95 145 0.0 1.0 0.00 0.00 0.00 58 1015.2
20260905173459 95 115 0.0 2.0 0.00 0.00 0.00 60 1015.4
20260905172954 95 147 0.0 3.0 0.00 0.00 0.00 59 1015.4
20260905172452 95 127 2.0 3.0 0.00 0.00 0.00 56 1015.3
20260905171948 96 180 1.0 2.0 0.00 0.00 0.00 58 1015.1
20260905171444 95 164 1.0 3.0 0.00 0.00 0.00 57 1015.3
20260905170940 94 53 1.0 8.0 0.00 0.00 0.00 58 1015.5
20260905170436 95 164 0.0 2.0 0.00 0.00 0.00 55 1015.5
20260905165936 95 343 5.0 6.0 0.00 0.00 0.00 54 1015.7
20260905165431 94 178 0.0 3.0 0.00 0.00 0.00 56 1015.7
20260905164926 94 168 0.0 2.0 0.00 0.00 0.00 58 1015.8
20260905164425 94 149 2.0 3.0 0.00 0.00 0.00 57 1015.8
20260905163920 95 171 1.0 2.0 0.00 0.00 0.00 56 1016.0
20260905163417 93 72 2.0 2.0 0.00 0.00 0.00 58 1016.1
20260905162913 93 279 2.0 4.0 0.00 0.00 0.00 59 1015.9
20260905162409 93 149 1.0 1.0 0.00 0.00 0.00 61 1016.1
20260905161903 94 193 2.0 2.0 0.00 0.00 0.00 56 1016.0
20260905161403 93 346 2.0 2.0 0.00 0.00 0.00 57 1016.0
20260905160901 92 190 1.0 2.0 0.00 0.00 0.00 62 1016.2
20260905160354 92 223 1.0 3.0 0.00 0.00 0.00 62 1016.2
20260905155849 94 117 0.0 1.0 0.00 0.00 0.00 61 1016.2
20260905155349 92 141 1.0 2.0 0.00 0.00 0.00 65 1016.1
20260905154848 93 158 0.0 1.0 0.00 0.00 0.00 68 1016.2
20260905154344 92 216 1.0 1.0 0.00 0.00 0.00 65 1016.4
20260905153839 90 152 1.0 2.0 0.00 0.00 0.00 68 1016.3
20260905153336 89 164 1.0 2.0 0.00 0.00 0.00 67 1016.4
20260905152835 89 234 1.0 2.0 0.00 0.00 0.00 68 1016.5
20260905152334 88 207 0.0 2.0 0.00 0.00 0.00 70 1016.5
20260905151830 91 151 0.0 1.0 0.00 0.00 0.00 69 1016.5
20260905151325 90 191 1.0 1.0 0.00 0.00 0.00 69 1016.5
20260905150824 89 143 1.0 1.0 0.00 0.00 0.00 68 1016.4
20260905150319 88 153 0.0 1.0 0.00 0.00 0.00 71 1016.4
20260905145817 87 194 1.0 2.0 0.00 0.00 0.00 74 1016.5
20260905145316 86 167 0.0 1.0 0.00 0.00 0.00 73 1016.4
20260905144815 84 142 0.0 1.0 0.00 0.00 0.00 79 1016.5
20260905144311 84 174 2.0 2.0 0.00 0.00 0.00 77 1016.9
20260905143809 84 160 0.0 1.0 0.00 0.00 0.00 75 1016.5
20260905143304 85 173 1.0 2.0 0.00 0.00 0.00 77 1016.9
20260905142803 86 159 0.0 0.0 0.00 0.00 0.00 76 1016.6
20260905142257 86 152 0.0 0.0 0.00 0.00 0.00 74 1016.6
20260905141753 86 157 0.0 1.0 0.00 0.00 0.00 74 1016.7
20260905141249 85 151 0.0 0.0 0.00 0.00 0.00 75 1016.7
20260905140745 85 147 0.0 1.0 0.00 0.00 0.00 78 1017.0
20260905140244 84 163 0.0 2.0 0.00 0.00 0.00 77 1016.9
20260905135743 85 135 1.0 1.0 0.00 0.00 0.00 75 1017.0
20260905135240 85 157 0.0 0.0 0.00 0.00 0.00 77 1016.9
20260905134739 84 142 0.0 1.0 0.00 0.00 0.00 77 1017.0
20260905134238 84 138 0.0 1.0 0.00 0.00 0.00 78 1017.2
20260905133733 84 140 0.0 0.0 0.00 0.00 0.00 77 1016.9
20260905133228 84 147 0.0 0.0 0.00 0.00 0.00 78 1017.0
20260905132727 83 159 0.0 1.0 0.00 0.00 0.00 82 1016.9
20260905132223 82 143 0.0 0.0 0.00 0.00 0.00 83 1017.1
20260905131718 81 142 0.0 0.0 0.00 0.00 0.00 86 1017.0
20260905131214 80 133 0.0 1.0 0.00 0.00 0.00 86 1016.9
20260905130714 80 135 0.0 2.0 0.00 0.00 0.00 88 1017.2
20260905130213 79 140 0.0 1.0 0.00 0.00 0.00 89 1017.3
20260905125708 79 140 0.0 2.0 0.00 0.00 0.00 89 1017.1
20260905125203 79 95 0.0 1.0 0.00 0.00 0.00 89 1017.3
20260905124700 79 139 0.0 0.0 0.00 0.00 0.00 88 1017.1
20260905124155 78 140 0.0 1.0 0.00 0.00 0.00 93 1017.0
20260905123650 76 140 0.0 0.0 0.00 0.00 0.00 99 1017.0
20260905123147 75 140 0.0 0.0 0.00 0.00 0.00 99 1017.0
20260905122647 75 140 0.0 0.0 0.00 0.00 0.00 99 1016.7
20260905122142 74 149 0.0 0.0 0.00 0.00 0.00 99 1016.6
20260905121642 73 149 0.0 0.0 0.00 0.00 0.00 99 1016.7
20260905121138 73 147 0.0 0.0 0.00 0.00 0.00 99 1016.7
20260905120637 72 147 0.0 0.0 0.00 0.00 0.00 99 1016.7
20260905120132 72 147 0.0 0.0 0.00 0.00 0.00 99 1016.7
20260905115631 72 147 0.0 0.0 0.00 0.00 0.00 99 1016.5
20260905115126 72 147 0.0 0.0 0.00 0.00 0.00 99 1016.5
20260905114626 72 147 0.0 0.0 0.00 0.00 0.00 99 1016.6
20260905114125 72 147 0.0 0.0 0.00 0.00 0.00 99 1016.2
20260905113620 72 147 0.0 0.0 0.00 0.00 0.00 99 1016.3
20260905113116 72 148 0.0 0.0 0.00 0.00 0.00 99 1016.2
20260905112618 72 148 0.0 0.0 0.00 0.00 0.00 99 1016.2
20260905112111 71 148 0.0 0.0 0.00 0.00 0.00 99 1016.2
20260905111606 71 148 0.0 0.0 0.00 0.00 0.00 99 1016.1
20260905111105 71 148 0.0 0.0 0.00 0.00 0.00 99 1015.9
20260905110604 71 148 0.0 0.0 0.00 0.00 0.00 99 1016.0
20260905110100 72 148 0.0 0.0 0.00 0.00 0.00 99 1015.9
20260905105600 71 150 0.0 0.0 0.00 0.00 0.00 99 1015.7
20260905105059 71 150 0.0 0.0 0.00 0.00 0.00 99 1015.7
20260905104555 72 152 0.0 0.0 0.00 0.00 0.00 99 1015.5
20260905104055 72 159 0.0 0.0 0.00 0.00 0.00 99 1015.7